Home > Weather > Eupen > Past weeks

Flag for Belgium Weather for the Past 2 Weeks in Eupen, Belgium

Now
39 °F

Partly sunny.


Feels Like: 31 °F
Forecast: 32 / 61 °F
Wind: 14 mph from Northeast

Location: Elsenborn

Current Time: May 1, 2016 at 10:38:34 AM

Latest Report: May 1, 2016 at 9:55 AM


Visibility: N/A

Pressure: 30.21 "Hg

Humidity: 87%

Dew Point: 36 °F

Location of EupenLocation

Historic Weather in Eupen — Graph

°F

Eupen Temperature Yesterday

Maximum temperature yesterday: 39 °F (at 10:25 AM)
Minimum temperature yesterday: 36 °F (at 12:25 AM)
Average temperature yesterday: 38 °F

High & Low Weather Summary for the Past Weeks

 TemperatureHumidityPressure
High66 °F (Apr 21, 3:55 PM)100% (Apr 17, 9:55 PM)30.42 "Hg (Apr 17, 9:55 PM)
Low23 °F (Apr 18, 5:55 AM)24% (Apr 21, 2:25 PM)29.53 "Hg (Apr 16, 8:25 AM)
Average39 °F80%29.96 "Hg
* Reported Apr 16 8:25 AM — May 1 8:55 AM, Eupen, Weather by CustomWeather, © 2016

Note: Actual official high and low records may vary slightly from our data, if they occured in-between our weather recording intervals... More about our weather records

Advertising

Eupen Weather History for the Previous 24 Hours

Scroll right to see more
 ConditionsComfort  
Time TempWeatherWind HumidityBarometerVisibility
8:55 AM
Sun, May 1
37 °FLow clouds.13 mph93%30.21 "Hg4 mi
8:25 AM36 °FLow clouds.13 mph100%30.21 "Hg4 mi
7:55 AM36 °FDrizzle. Low clouds.13 mph100%30.21 "Hg1 mi
7:25 AM36 °FLight rain. Low clouds.13 mph100%30.21 "Hg1 mi
6:25 AM36 °FLight rain. Low clouds.12 mph100%30.18 "Hg3 mi
5:55 AM37 °FLight rain. Low clouds.14 mph93%30.18 "Hg2 mi
5:25 AM37 °FLight rain. Low clouds.13 mph93%30.15 "Hg1 mi
4:25 AM37 °FLight rain. Low clouds.13 mph93%30.15 "Hg4 mi
3:55 AM37 °FOvercast.13 mph87%30.15 "HgN/A
3:25 AM36 °FPassing clouds.13 mph93%30.15 "HgN/A
2:55 AM37 °FPassing clouds.14 mph87%30.15 "HgN/A
2:25 AM37 °FOvercast.13 mph93%30.15 "HgN/A
1:55 AM37 °FLow clouds.13 mph93%30.15 "HgN/A
1:25 AM37 °FMostly cloudy.14 mph93%30.15 "HgN/A
12:55 AM37 °FPassing clouds.13 mph93%30.15 "HgN/A
12:25 AM37 °FLow clouds.14 mph93%30.12 "HgN/A
11:55 PM
Sat, Apr 30
39 °FDrizzle. Low clouds.14 mph93%30.15 "Hg4 mi
10:55 PM39 °FDrizzle. Low clouds.12 mph93%30.12 "Hg4 mi
10:25 PM37 °FDrizzle. Low clouds.12 mph100%30.12 "Hg3 mi
9:55 PM39 °FDrizzle. Mostly cloudy.12 mph87%30.12 "Hg4 mi
9:25 PM37 °FLow clouds.9 mph93%30.09 "Hg4 mi
8:55 PM37 °FOvercast.10 mph93%30.09 "HgN/A
8:25 PM39 °FOvercast.9 mph87%30.09 "HgN/A
7:55 PM37 °FOvercast.8 mph93%30.09 "HgN/A
7:25 PM37 °FLight rain. Low clouds.9 mph93%30.09 "HgN/A
6:55 PM39 °FLight rain. Mostly cloudy.7 mph93%30.07 "Hg5 mi
6:25 PM39 °FDrizzle. Low clouds.6 mph93%30.07 "HgN/A
5:55 PM39 °FDrizzle. Overcast.8 mph87%30.07 "HgN/A
5:25 PM39 °FLight rain. Low clouds.7 mph93%30.07 "HgN/A
4:55 PM39 °FLight rain. Low clouds.8 mph93%30.07 "HgN/A
4:25 PM39 °FOvercast.7 mph93%30.07 "HgN/A
3:55 PM39 °FLow clouds.6 mph93%30.07 "HgN/A
3:25 PM39 °FLow clouds.7 mph93%30.07 "HgN/A
2:55 PM39 °FLow clouds.8 mph93%30.07 "HgN/A
2:25 PM39 °FLow clouds.9 mph93%30.04 "HgN/A
1:55 PM39 °FLow clouds.8 mph93%30.04 "HgN/A
1:25 PM39 °FLow clouds.9 mph93%30.04 "HgN/A
12:55 PM39 °FLow clouds.8 mph93%30.04 "HgN/A
12:25 PM39 °FDrizzle. Low clouds.7 mph93%30.04 "HgN/A
11:55 AM39 °FLow clouds.7 mph93%30.04 "HgN/A
11:25 AM39 °FLow clouds.6 mph93%30.04 "HgN/A
10:55 AM39 °FLow clouds.6 mph93%30.04 "HgN/A
10:25 AM39 °FDrizzle. Low clouds.6 mph93%30.01 "HgN/A
Weather by CustomWeather, © 2016

See weather overviewHow to use our weather pages